Find Starlink 32647

NORAD ID: 62200 Int'l Des: 2024-229 Owner: SPXS Country: US Constellation: starlink operational
LEOCIRCULAR

Live-Position

3D-Globus wird geladen...

Über Starlink 32647

Beschreibung wird geladen...

Nächste Überflüge

Passes for default location (London). Set your location on the main map for personalized predictions.

Höhenverlauf

Loading altitude history...

Zweizeiliger Elementsatz

1 62200U 24229J 26121.28246131 .00018996 00000-0 69746-3 0 9996
2 62200 42.9947 333.7952 0000623 356.4086 3.6761 15.27608142 78602
Epoch: 1. Mai 2026 • Age: 16 hours

Aktueller Status

Höhe 485.7 km
Geschwindigkeit 7.63 km/s
Subsatellitenpunkt 42.06°N, 157.81°W
Startdatum 4. Dez. 2024
Alter 1.4 years
Typ internet

Technische Details

Klassifizierung Payload
Masse 730.00 kg
Trockenmasse 700.00 kg
Gesamtmasse 730.00 kg
Länge 0.30 m
Durchmesser 4.10 m
Spannweite 29.00 m
Form Box + pan
Hersteller SPXS
Bus-Typ Starlink V2M
Phasenstatus In Orbit
Besitzer/Staat SPXS/US

Most Searched